Miscellaneous Local Product
Issued by NWS North Platte, NE

Home | Current Version | Previous Version | Graphics & Text | Print | Product List | Glossary On
Versions: 1 2 3 4 5 6 7 8 9 10 11 12 13 14 15 16 17 18 19 20 21 22 23 24 25 26 27 28 29 30 31 32 33 34 35 36 37 38 39 40 41 42 43 44 45 46 47 48 49 50
000
AXUS43 KLBF 170210
MISLBF


WESTERN AND NORTH CENTRAL NEBRASKA HOURLY WEATHER ROUNDUP
NATIONAL WEATHER SERVICE NORTH PLATTE NE
900 PM CDT TUE SEP 16 2014

***STATIONS NOT REPORTING VARIABLES SUCH AS SKY/WEATHER OR
PRESSURE ARE PROVIDED BY THE NEBRASKA DEPARTMENT OF
ROADS...RAWS...AND APRS NETWORKS...AND ARE NOT UNDER
NATIONAL WEATHER SERVICE QUALITY CONTROL***

...OBSERVATIONS IN AND NEAR THE EASTERN PANHANDLE OF NEBRASKA...

CITY           SKY/WX    TMP DP  RH WIND       PRES   REMARKS
PINE RIDGE     CLEAR     60  51  72 NE8       29.95R
CHADRON        CLEAR     64  50  60 CALM      29.93R
ALLIANCE       CLEAR     57  45  64 S5        29.98S
SIDNEY         CLEAR     66  44  45 SE9       30.04S
WHITECLAY        N/A     61  50  67 E5          N/A
RUSHVILLE        N/A     64  37  36 SE13        N/A
LISCO            N/A     70  40  32 E6          N/A
BIG SPRINGS      N/A     72  60  64 CALM        N/A
$$

...OBSERVATIONS IN NORTH CENTRAL NEBRASKA...

CITY           SKY/WX    TMP DP  RH WIND       PRES   REMARKS
VALENTINE      CLEAR     60  54  80 CALM      29.94R
THEDFORD       CLEAR     68  59  74 S9        29.96S
AINSWORTH      PTCLDY    62  57  82 S8        29.95R
O`NEILL        CLEAR     61  57  88 S8        29.97S
ORD            CLEAR     60  55  83 SE7       29.97S
BROKEN BOW     CLEAR     59  56  89 SE3       29.99R
SPRINGVIEW       N/A     65  57  76 CALM        N/A
ROSE             N/A     63  61  93 E9          N/A
NEWPORT          N/A     62  58  87 S6          N/A
COMSTOCK         N/A     63  59  88 S7          N/A
CHAMBERS         N/A     59  54  84 S3          N/A
$$

...OBSERVATIONS IN SOUTHWEST NEBRASKA AND FAR NORTHEAST COLORADO...

CITY           SKY/WX    TMP DP  RH WIND       PRES   REMARKS
WRAY           FAIR      68  49  49 N5        30.01R
HOLYOKE        FAIR      61  54  77 E8        30.01S
IMPERIAL       CLEAR     65  53  65 E3        30.00R
OGALLALA       CLEAR     61  56  84 CALM      29.98S
NORTH PLATTE   CLEAR     59  56  89 E7        29.98R
MCCOOK         CLEAR     67  59  75 E7        29.97R
LEXINGTON      CLEAR     61  57  88 SE7       29.99R
PAXTON           N/A     74  63  67 CALM        N/A
SUTHERLAND       N/A     65  59  79 S6          N/A
BRADY            N/A     61  56  83 CALM        N/A
GOTHENBURG       N/A     66  56  70 CALM        N/A
CALLAWAY         N/A     63  57  81 SE3         N/A
$$

...SOME WEATHER OBSERVATIONS FROM AROUND THE REGION...

CITY           SKY/WX    TMP DP  RH WIND       PRES   REMARKS
DENVER         PTCLDY    67  38  34 SE12      30.11R
LARAMIE        CLEAR     58  34  40 W6        30.22S
CHEYENNE       CLEAR     69  34  27 N5        30.15R
SCOTTSBLUFF    PTCLDY    64  50  60 E7        29.98S
RAPID CITY     CLEAR     58  48  69 W3        29.95S
PIERRE         PTCLDY    60  51  72 N5        29.89R
WINNER         FAIR      69  56  62 CALM      29.91R
SIOUX FALLS    CLOUDY    63  49  60 S14       29.97S
OMAHA          CLOUDY    64  50  60 SE7       30.03R
GRAND ISLAND   CLEAR     61  54  77 SE8       30.00F
KANSAS CITY    PTCLDY    64  53  67 SE6       30.04S
WICHITA        PTCLDY    72  64  76 S13       30.00R
HAYS           CLEAR     70  61  73 SE7       29.96R
LIBERAL        CLEAR     75  57  53 SW10      30.04R
GOODLAND       CLEAR     70  50  49 N6        30.03R
$$



USA.gov is the U.S. government's official web portal to all federal, state and local government web resources and services.